STARLINK-30062 (55715 NORAD) Tracking and Keplerian Element Data

This shows tracking and keplerian element data for the satellite.

Feedback or suggestion? Click here.




ElementValue
Catalog55715
NameSTARLINK-30062
Epoch Orbit130
Epoch Day62.91667824
Epoch Year2023
RAAN259.5975
Inclination43.0105
Eccentricity0.000646
Argument of Perigee266.1319
Mean Anonmoly201.403
Mean Motion15.68094243
Decay Rate0.00195669
L11 55715U 23026W 23062.91667824 .00195669 00000+0 16712-2 0 9996
L22 55715 43.0105 259.5975 0006460 266.1319 201.4030 15.68094243 1300



Live tracking and technical data element details for STARLINK-30062 (NORAD 55715). STARLINK-30062 can be tracked NOW for your location showing map with azimuth and elevation plus other details from your city location.







IsCatalogInMostPopularTable: catalog: 55715, numindb: 16
Update: records affected: 1



GetName: 55715 STARLINK-30062

Hit Count: updated at: Mon, 20 Mar 2023 12:41:28 GMT